カタログに戻る

QIANFAN-59

運用中通信PO
NORAD 62789·PAYLOAD·🇨🇳 China

打ち上げ Jan 23, 2025 から Taiyuan Satellite Launch Center

Loading…

次のパス (今後24時間)

TLE

最新Source: Space-Track

元期: Sep 14, 2026, 13:22 UTC

1 62789U 25016E   26257.55734752  .00000041  00000-0  44464-4 0  9997
2 62789  88.9667  74.4657 0012368 270.4304  89.5430 13.51024265 84483

AllMySatでQIANFAN-59をリアルタイム追跡

Download on the App Store